Regional Weather Roundup
Issued by NWS

Home | Current Version | Previous Version | Graphics & Text | Print | Product List | Glossary On
Versions: 1 2 3 4 5 6 7 8 9 10 11 12 13 14 15 16 17 18 19 20 21 22 23 24 25 26 27 28 29 30 31 32 33 34 35 36 37 38 39 40 41 42 43 44 45 46 47 48 49 50
000
ASUS45 KSLC 300510
RWRUT

UTAH REGIONAL WEATHER ROUNDUP
NATIONAL WEATHER SERVICE SALT LAKE CITY UT
1100 PM MDT SAT APR 29 2017

UTZ001>011-023>025-300600-

NORTHERN UTAH

CITY           SKY/WX    TMP DP  RH WIND       PRES   REMARKS
BRIGHAM CITY   PTCLDY    46  35  63 CALM      30.22S
HILL AFB       CLEAR     43  25  49 E9        30.21R
LOGAN          PTCLDY    45  32  60 S5        30.22R
OGDEN          PTCLDY    43  29  57 S7        30.21R
SALT LAKE CITY PTCLDY    47  31  53 S5        30.21S
TOOELE VALLEY  PTCLDY    36  32  87 S10       30.23S WCI  28
WENDOVER       CLEAR     49  31  49 W5        30.22R
HEBER CITY     CLEAR     30  21  69 SE3       30.23R
WEST JORDAN    PTCLDY    44  36  74 W3        30.22S

$$

UTZ011>015-024>027-300600-

CENTRAL/NORTHEAST UTAH

CITY           SKY/WX    TMP DP  RH WIND       PRES   REMARKS
PROVO AIRPORT  CLEAR     44  23  43 CALM      30.23R
MOAB/CANYONLAN CLOUDY    49  18  29 NE15      30.13R
DELTA          PTCLDY    41  21  45 N6        30.22F
PRICE          CLEAR     39  17  41 NE13      30.20R WCI  31
ROOSEVELT      CLEAR     39  19  45 W9        30.23R WCI  33
VERNAL         CLEAR     38  16  40 NE7       30.22R WCI  33

$$

UTZ013>016-019>022-027-300600-

SOUTHERN UTAH

CITY           SKY/WX    TMP DP  RH WIND       PRES   REMARKS
BRYCE CANYON   CLEAR     35  15  44 NW14      30.22R WCI  26
CEDAR CITY     CLEAR     41  20  43 N10       30.21R
MILFORD        CLEAR     42  19  39 NW9       30.22R
ST GEORGE      CLEAR     62  19  19 NE18G25   30.13R
HANKSVILLE     CLOUDY    50  18  27 N12       30.17R
BLANDING       CLEAR     37  15  41 NW9       30.18R WCI  30

$$

REGIONAL REPORTS     COLORADO/ARIZONA

CITY           SKY/WX    TMP DP  RH WIND       PRES   REMARKS
CRAIG, CO      CLEAR     32  20  61 VRB3      30.19R
GRAND JUNCTION CLEAR     41  19  41 N9        30.15R
RIFLE, CO      CLOUDY    41  21  44 W8        30.16R
MONTROSE, CO   CLOUDY    40  25  55 NW12      30.13R WCI  33
CORTEZ, CO     CLEAR     36  22  56 N6        30.08R WCI  31
COLORADO CITY    N/A     52  19  28 N8        30.21S
PAGE, AZ       CLEAR     57  17  21 N8        30.11R
GRAND CANYON   CLEAR     31  11  43 CALM      30.18R
KINGMAN, AZ    CLEAR     48  16  27 E3        30.11R
FLAGSTAFF, AZ  CLEAR     32  11  41 CALM      30.17R

$$

REGIONAL REPORTS    NEVADA/IDAHO/WYOMING

CITY           SKY/WX    TMP DP  RH WIND       PRES   REMARKS
LAS VEGAS, NV  CLEAR     70  13  11 NE5       30.07R
ELY, NY        CLEAR     35  18  49 NW3       30.25R
ELKO, NV       PTCLDY    46  28  49 NW3       30.23R
POCATELLO, ID  CLEAR     43  26  51 S9        30.19S
BURLEY, ID     CLEAR     44  26  49 S9        30.18R
FORT BRIDGER,    N/A     34  23  64 W10       30.25  WCI  26
EVANSTON, WY   CLEAR     32  21  64 SW6       30.24S WCI  26
ROCK SPRINGS,  CLEAR     31  19  61 E3        30.22S
KEMMERER, WY     N/A     32  23  69 NE5       30.23S WCI  27

$$



USA.gov is the U.S. government's official web portal to all federal, state and local government web resources and services.